Location: Brede
(50.9167°N, 0.6000°E)
Time: 01:35:37
(UTC+00:00)

Cosmos 2227 Rocket - Pass Details

Date: 08 August 2020
Orbit: 840 x 844 km, 71.0° (Epoch: 19 September)

Event Time Altitude Azimuth Distance (km) Brightness Sun altitude
Exits shadow 03:00:19 15° 246° (WSW) 2,127 3.7 -12.7°
Maximum altitude 03:04:37 40° 311° (NW) 1,231 3.0 -12.2°
Drops below altitude 10° 03:09:57 10° 20° (NNE) 2,475 5.8 -11.6°
Sets 03:12:34 0° 28° (NNE) 3,412 7.0 -11.3°
